RKSI

Incheon International Airport

Airport
ICAO code
RKSI
IATA Code
ICN
Summary
ICAO Region
APAC
ICAO Territory
Location

Jung District, Incheon,

Serving
Seoul
Elevation
23 ft
Coordinates
37° 27' 52" N , 126° 27' 14" E
KCC
Metar
Observation
RKSI 291730Z 31017KT CAVOK M03/M12 Q1030 NOSIG
Station
Incheon International Airport
Date/Time
2022-11-29 17:30:00
Wind direction
310°
Wind speed
17 kts
Lowest cloud amount
clouds and visibility OK
Temperature
-3°C
Dew point
-12°C
Humidity
49%
QNH
1030 hPa
Weather condition
n/a

Description

Incheon International Airport is the main international airport in South Korea and one of the largest and busiest in south east Asia. It is located within the Seoul National Capital Area.

Climatology

Warm continental climate/Humid continental climate/Humid subtropical climate (Köppen climate classification Dwa/Cwa)

Runways

Designator Length Width Surface Rops
15L/33R 3750 60 PEM Yes/Yes
15R/33L 3750 60 PEM Yes/Yes

Airport map

Aerial View

SKYbrary Partners:

Safety knowledge contributed by: